owner,sensor,date,latitude,longitude,air_temperature,qcFlag 
WAVCIS,ioos:station:WAVCIS:CSI15:1,2009-10-01T00:00:00Z,28.8332,-90.8320,29.54,11111222 
WAVCIS,ioos:station:WAVCIS:CSI15:1,2009-10-01T01:00:00Z,28.8332,-90.8320,29.28,11111222 
WAVCIS,ioos:station:WAVCIS:CSI15:1,2009-10-01T02:00:00Z,28.8332,-90.8320,29.29,11111222 
WAVCIS,ioos:station:WAVCIS:CSI15:1,2009-10-01T03:00:00Z,28.8332,-90.8320,29.36,11111222 
WAVCIS,ioos:station:WAVCIS:CSI15:1,2009-10-01T04:00:00Z,28.8332,-90.8320,29.3,11111222 
WAVCIS,ioos:station:WAVCIS:CSI15:1,2009-10-01T05:00:00Z,28.8332,-90.8320,30.36,11111222 
WAVCIS,ioos:station:WAVCIS:CSI15:1,2009-10-01T06:00:00Z,28.8332,-90.8320,29.52,11111222 
WAVCIS,ioos:station:WAVCIS:CSI15:1,2009-10-01T07:00:00Z,28.8332,-90.8320,29.38,11111222 
WAVCIS,ioos:station:WAVCIS:CSI15:1,2009-10-01T08:00:00Z,28.8332,-90.8320,29.24,11111222 
WAVCIS,ioos:station:WAVCIS:CSI15:1,2009-10-01T09:00:00Z,28.8332,-90.8320,29.76,11111222 
WAVCIS,ioos:station:WAVCIS:CSI15:1,2009-10-01T10:00:00Z,28.8332,-90.8320,31.69,11111222 
WAVCIS,ioos:station:WAVCIS:CSI15:1,2009-10-01T11:00:00Z,28.8332,-90.8320,29.44,11111222 
WAVCIS,ioos:station:WAVCIS:CSI15:1,2009-10-01T12:00:00Z,28.8332,-90.8320,30.01,11111222 
WAVCIS,ioos:station:WAVCIS:CSI15:1,2009-10-01T13:00:00Z,28.8332,-90.8320,30.01,11111222 
WAVCIS,ioos:station:WAVCIS:CSI15:1,2009-10-01T14:00:00Z,28.8332,-90.8320,30.33,11111222 
WAVCIS,ioos:station:WAVCIS:CSI15:1,2009-10-01T15:00:00Z,28.8332,-90.8320,30.06,11111222 
WAVCIS,ioos:station:WAVCIS:CSI15:1,2009-10-01T16:00:00Z,28.8332,-90.8320,30.2,11111222 
WAVCIS,ioos:station:WAVCIS:CSI15:1,2009-10-01T17:00:00Z,28.8332,-90.8320,30.2,11111222 
WAVCIS,ioos:station:WAVCIS:CSI15:1,2009-10-01T18:00:00Z,28.8332,-90.8320,30.43,11111222 
WAVCIS,ioos:station:WAVCIS:CSI15:1,2009-10-01T19:00:00Z,28.8332,-90.8320,31.34,11111222 
WAVCIS,ioos:station:WAVCIS:CSI15:1,2009-10-01T20:00:00Z,28.8332,-90.8320,31.15,11111222 
WAVCIS,ioos:station:WAVCIS:CSI15:1,2009-10-01T21:00:00Z,28.8332,-90.8320,32.74,11111222 
WAVCIS,ioos:station:WAVCIS:CSI15:1,2009-10-01T22:00:00Z,28.8332,-90.8320,33.95,11111222 
WAVCIS,ioos:station:WAVCIS:CSI15:1,2009-10-01T23:00:00Z,28.8332,-90.8320,32.35,11111222 
WAVCIS,ioos:station:WAVCIS:CSI15:1,2009-10-02T00:00:00Z,28.8332,-90.8320,33.06,11111222 
WAVCIS,ioos:station:WAVCIS:CSI15:1,2009-10-02T01:00:00Z,28.8332,-90.8320,32.83,11111222 
WAVCIS,ioos:station:WAVCIS:CSI15:1,2009-10-02T02:00:00Z,28.8332,-90.8320,32.38,11111222 
WAVCIS,ioos:station:WAVCIS:CSI15:1,2009-10-02T03:00:00Z,28.8332,-90.8320,31.07,11111222 
WAVCIS,ioos:station:WAVCIS:CSI15:1,2009-10-02T04:00:00Z,28.8332,-90.8320,30.75,11111222 
WAVCIS,ioos:station:WAVCIS:CSI15:1,2009-10-02T05:00:00Z,28.8332,-90.8320,30.69,11111222 
WAVCIS,ioos:station:WAVCIS:CSI15:1,2009-10-02T06:00:00Z,28.8332,-90.8320,31.02,11111222 
WAVCIS,ioos:station:WAVCIS:CSI15:1,2009-10-02T07:00:00Z,28.8332,-90.8320,31.24,11111222 
WAVCIS,ioos:station:WAVCIS:CSI15:1,2009-10-02T08:00:00Z,28.8332,-90.8320,31.44,11111222 
WAVCIS,ioos:station:WAVCIS:CSI15:1,2009-10-02T09:00:00Z,28.8332,-90.8320,31.63,11111222 
WAVCIS,ioos:station:WAVCIS:CSI15:1,2009-10-02T10:00:00Z,28.8332,-90.8320,30.64,11111222 
WAVCIS,ioos:station:WAVCIS:CSI15:1,2009-10-02T11:00:00Z,28.8332,-90.8320,28.26,11111222 
WAVCIS,ioos:station:WAVCIS:CSI15:1,2009-10-02T12:00:00Z,28.8332,-90.8320,25.65,11111222 
WAVCIS,ioos:station:WAVCIS:CSI15:1,2009-10-02T13:00:00Z,28.8332,-90.8320,26.06,11111222 
WAVCIS,ioos:station:WAVCIS:CSI15:1,2009-10-02T14:00:00Z,28.8332,-90.8320,26.78,11111222 
WAVCIS,ioos:station:WAVCIS:CSI15:1,2009-10-02T15:00:00Z,28.8332,-90.8320,26.4,11111222 
WAVCIS,ioos:station:WAVCIS:CSI15:1,2009-10-02T16:00:00Z,28.8332,-90.8320,27.49,11111222 
WAVCIS,ioos:station:WAVCIS:CSI15:1,2009-10-02T17:00:00Z,28.8332,-90.8320,31.34,11111222 
WAVCIS,ioos:station:WAVCIS:CSI15:1,2009-10-02T18:00:00Z,28.8332,-90.8320,29.12,11111222 
WAVCIS,ioos:station:WAVCIS:CSI15:1,2009-10-02T19:00:00Z,28.8332,-90.8320,29.38,11111222 
WAVCIS,ioos:station:WAVCIS:CSI15:1,2009-10-02T20:00:00Z,28.8332,-90.8320,29.5,11111222 
WAVCIS,ioos:station:WAVCIS:CSI15:1,2009-10-02T21:00:00Z,28.8332,-90.8320,29.87,11111222 
WAVCIS,ioos:station:WAVCIS:CSI15:1,2009-10-02T22:00:00Z,28.8332,-90.8320,30.48,11111222 
WAVCIS,ioos:station:WAVCIS:CSI15:1,2009-10-02T23:00:00Z,28.8332,-90.8320,31.07,11111222 
WAVCIS,ioos:station:WAVCIS:CSI15:1,2009-10-03T00:00:00Z,28.8332,-90.8320,32.36,11111222 
WAVCIS,ioos:station:WAVCIS:CSI15:1,2009-10-03T01:00:00Z,28.8332,-90.8320,30.18,11111222 
WAVCIS,ioos:station:WAVCIS:CSI15:1,2009-10-03T02:00:00Z,28.8332,-90.8320,30.4,11111222 
WAVCIS,ioos:station:WAVCIS:CSI15:1,2009-10-03T03:00:00Z,28.8332,-90.8320,30.52,11111222 
WAVCIS,ioos:station:WAVCIS:CSI15:1,2009-10-03T04:00:00Z,28.8332,-90.8320,30.47,11111222 
WAVCIS,ioos:station:WAVCIS:CSI15:1,2009-10-03T05:00:00Z,28.8332,-90.8320,30.37,11111222 
WAVCIS,ioos:station:WAVCIS:CSI15:1,2009-10-03T06:00:00Z,28.8332,-90.8320,30.41,11111222 
WAVCIS,ioos:station:WAVCIS:CSI15:1,2009-10-03T07:00:00Z,28.8332,-90.8320,30.59,11111222 
WAVCIS,ioos:station:WAVCIS:CSI15:1,2009-10-03T08:00:00Z,28.8332,-90.8320,30.71,11111222 
WAVCIS,ioos:station:WAVCIS:CSI15:1,2009-10-03T09:00:00Z,28.8332,-90.8320,30.75,11111222 
WAVCIS,ioos:station:WAVCIS:CSI15:1,2009-10-03T10:00:00Z,28.8332,-90.8320,30.52,11111222 
WAVCIS,ioos:station:WAVCIS:CSI15:1,2009-10-03T11:00:00Z,28.8332,-90.8320,30.6,11111222 
WAVCIS,ioos:station:WAVCIS:CSI15:1,2009-10-03T12:00:00Z,28.8332,-90.8320,30.54,11111222 
WAVCIS,ioos:station:WAVCIS:CSI15:1,2009-10-03T13:00:00Z,28.8332,-90.8320,30.42,11111222 
WAVCIS,ioos:station:WAVCIS:CSI15:1,2009-10-03T14:00:00Z,28.8332,-90.8320,31.15,11111222 
WAVCIS,ioos:station:WAVCIS:CSI15:1,2009-10-03T15:00:00Z,28.8332,-90.8320,31.08,11111222 
WAVCIS,ioos:station:WAVCIS:CSI15:1,2009-10-03T16:00:00Z,28.8332,-90.8320,31.1,11111222 
WAVCIS,ioos:station:WAVCIS:CSI15:1,2009-10-03T17:00:00Z,28.8332,-90.8320,32.18,11111222 
WAVCIS,ioos:station:WAVCIS:CSI15:1,2009-10-03T18:00:00Z,28.8332,-90.8320,31.93,11111222 
WAVCIS,ioos:station:WAVCIS:CSI15:1,2009-10-03T19:00:00Z,28.8332,-90.8320,31.57,11111222 
WAVCIS,ioos:station:WAVCIS:CSI15:1,2009-10-03T20:00:00Z,28.8332,-90.8320,32.73,11111222 
WAVCIS,ioos:station:WAVCIS:CSI15:1,2009-10-03T21:00:00Z,28.8332,-90.8320,31.97,11111222 
WAVCIS,ioos:station:WAVCIS:CSI15:1,2009-10-03T22:00:00Z,28.8332,-90.8320,31.19,11111222 
WAVCIS,ioos:station:WAVCIS:CSI15:1,2009-10-03T23:00:00Z,28.8332,-90.8320,31.03,11111222 
WAVCIS,ioos:station:WAVCIS:CSI15:1,2009-10-04T00:00:00Z,28.8332,-90.8320,31.31,11111222 
WAVCIS,ioos:station:WAVCIS:CSI15:1,2009-10-04T01:00:00Z,28.8332,-90.8320,33.19,11111222 
WAVCIS,ioos:station:WAVCIS:CSI15:1,2009-10-04T02:00:00Z,28.8332,-90.8320,31.79,11111222 
WAVCIS,ioos:station:WAVCIS:CSI15:1,2009-10-04T03:00:00Z,28.8332,-90.8320,32.11,11111222 
WAVCIS,ioos:station:WAVCIS:CSI15:1,2009-10-04T04:00:00Z,28.8332,-90.8320,31.98,11111222 
WAVCIS,ioos:station:WAVCIS:CSI15:1,2009-10-04T05:00:00Z,28.8332,-90.8320,31.84,11111222 
WAVCIS,ioos:station:WAVCIS:CSI15:1,2009-10-04T06:00:00Z,28.8332,-90.8320,32.27,11111222 
WAVCIS,ioos:station:WAVCIS:CSI15:1,2009-10-04T07:00:00Z,28.8332,-90.8320,33.1,11111222 
WAVCIS,ioos:station:WAVCIS:CSI15:1,2009-10-04T08:00:00Z,28.8332,-90.8320,31.77,11111222 
WAVCIS,ioos:station:WAVCIS:CSI15:1,2009-10-04T09:00:00Z,28.8332,-90.8320,31.78,11111222 
WAVCIS,ioos:station:WAVCIS:CSI15:1,2009-10-04T10:00:00Z,28.8332,-90.8320,32.37,11111222 
WAVCIS,ioos:station:WAVCIS:CSI15:1,2009-10-04T11:00:00Z,28.8332,-90.8320,33.91,11111222 
WAVCIS,ioos:station:WAVCIS:CSI15:1,2009-10-04T12:00:00Z,28.8332,-90.8320,32.3,11111222 
WAVCIS,ioos:station:WAVCIS:CSI15:1,2009-10-04T13:00:00Z,28.8332,-90.8320,31.7,11111222 
WAVCIS,ioos:station:WAVCIS:CSI15:1,2009-10-04T14:00:00Z,28.8332,-90.8320,31.88,11111222 
WAVCIS,ioos:station:WAVCIS:CSI15:1,2009-10-04T15:00:00Z,28.8332,-90.8320,29.87,11111222 
WAVCIS,ioos:station:WAVCIS:CSI15:1,2009-10-04T16:00:00Z,28.8332,-90.8320,32.96,11111222 
WAVCIS,ioos:station:WAVCIS:CSI15:1,2009-10-04T17:00:00Z,28.8332,-90.8320,32.2,11111222 
WAVCIS,ioos:station:WAVCIS:CSI15:1,2009-10-04T18:00:00Z,28.8332,-90.8320,32.94,11111222 
WAVCIS,ioos:station:WAVCIS:CSI15:1,2009-10-04T19:00:00Z,28.8332,-90.8320,33.02,11111222 
WAVCIS,ioos:station:WAVCIS:CSI15:1,2009-10-04T20:00:00Z,28.8332,-90.8320,33.11,11111222 
WAVCIS,ioos:station:WAVCIS:CSI15:1,2009-10-04T21:00:00Z,28.8332,-90.8320,33.16,11111222 
WAVCIS,ioos:station:WAVCIS:CSI15:1,2009-10-04T22:00:00Z,28.8332,-90.8320,33.42,11111222 
WAVCIS,ioos:station:WAVCIS:CSI15:1,2009-10-04T23:00:00Z,28.8332,-90.8320,33.4,11111222 
WAVCIS,ioos:station:WAVCIS:CSI15:1,2009-10-05T00:00:00Z,28.8332,-90.8320,33.37,11111222 
WAVCIS,ioos:station:WAVCIS:CSI15:1,2009-10-05T01:00:00Z,28.8332,-90.8320,33.36,11111222 
WAVCIS,ioos:station:WAVCIS:CSI15:1,2009-10-05T02:00:00Z,28.8332,-90.8320,33.4,11111222 
WAVCIS,ioos:station:WAVCIS:CSI15:1,2009-10-05T03:00:00Z,28.8332,-90.8320,33.46,11111222 
WAVCIS,ioos:station:WAVCIS:CSI15:1,2009-10-05T04:00:00Z,28.8332,-90.8320,33.39,11111222 
WAVCIS,ioos:station:WAVCIS:CSI15:1,2009-10-05T05:00:00Z,28.8332,-90.8320,33.44,11111222 
WAVCIS,ioos:station:WAVCIS:CSI15:1,2009-10-05T06:00:00Z,28.8332,-90.8320,33.33,11111222 
WAVCIS,ioos:station:WAVCIS:CSI15:1,2009-10-05T07:00:00Z,28.8332,-90.8320,33.25,11111222 
WAVCIS,ioos:station:WAVCIS:CSI15:1,2009-10-05T08:00:00Z,28.8332,-90.8320,33.22,11111222 
WAVCIS,ioos:station:WAVCIS:CSI15:1,2009-10-05T09:00:00Z,28.8332,-90.8320,33.11,11111222 
WAVCIS,ioos:station:WAVCIS:CSI15:1,2009-10-05T10:00:00Z,28.8332,-90.8320,33.11,11111222 
WAVCIS,ioos:station:WAVCIS:CSI15:1,2009-10-05T11:00:00Z,28.8332,-90.8320,32.9,11111222 
WAVCIS,ioos:station:WAVCIS:CSI15:1,2009-10-05T12:00:00Z,28.8332,-90.8320,32.8,11111222 
WAVCIS,ioos:station:WAVCIS:CSI15:1,2009-10-05T13:00:00Z,28.8332,-90.8320,33.26,11111222 
WAVCIS,ioos:station:WAVCIS:CSI15:1,2009-10-05T14:00:00Z,28.8332,-90.8320,33.4,11111222 
WAVCIS,ioos:station:WAVCIS:CSI15:1,2009-10-05T15:00:00Z,28.8332,-90.8320,33.22,11111222 
WAVCIS,ioos:station:WAVCIS:CSI15:1,2009-10-05T16:00:00Z,28.8332,-90.8320,33.31,11111222 
WAVCIS,ioos:station:WAVCIS:CSI15:1,2009-10-05T17:00:00Z,28.8332,-90.8320,33.46,11111222 
WAVCIS,ioos:station:WAVCIS:CSI15:1,2009-10-05T18:00:00Z,28.8332,-90.8320,33.47,11111222 
WAVCIS,ioos:station:WAVCIS:CSI15:1,2009-10-05T19:00:00Z,28.8332,-90.8320,33.42,11111222 
WAVCIS,ioos:station:WAVCIS:CSI15:1,2009-10-05T20:00:00Z,28.8332,-90.8320,33.67,11111222 
WAVCIS,ioos:station:WAVCIS:CSI15:1,2009-10-05T21:00:00Z,28.8332,-90.8320,33.58,11111222 
WAVCIS,ioos:station:WAVCIS:CSI15:1,2009-10-05T22:00:00Z,28.8332,-90.8320,32.98,11111222 
WAVCIS,ioos:station:WAVCIS:CSI15:1,2009-10-05T23:00:00Z,28.8332,-90.8320,33.18,11111222 
WAVCIS,ioos:station:WAVCIS:CSI15:1,2009-10-06T00:00:00Z,28.8332,-90.8320,32.69,11111222 
WAVCIS,ioos:station:WAVCIS:CSI15:1,2009-10-06T01:00:00Z,28.8332,-90.8320,32.5,11111222 
WAVCIS,ioos:station:WAVCIS:CSI15:1,2009-10-06T02:00:00Z,28.8332,-90.8320,32.39,11111222 
WAVCIS,ioos:station:WAVCIS:CSI15:1,2009-10-06T03:00:00Z,28.8332,-90.8320,32.32,11111222 
WAVCIS,ioos:station:WAVCIS:CSI15:1,2009-10-06T04:00:00Z,28.8332,-90.8320,32.17,11111222 
WAVCIS,ioos:station:WAVCIS:CSI15:1,2009-10-06T05:00:00Z,28.8332,-90.8320,32.1,11111222 
WAVCIS,ioos:station:WAVCIS:CSI15:1,2009-10-06T06:00:00Z,28.8332,-90.8320,32.06,11111222 
WAVCIS,ioos:station:WAVCIS:CSI15:1,2009-10-06T07:00:00Z,28.8332,-90.8320,31.98,11111222 
WAVCIS,ioos:station:WAVCIS:CSI15:1,2009-10-06T08:00:00Z,28.8332,-90.8320,31.95,11111222 
WAVCIS,ioos:station:WAVCIS:CSI15:1,2009-10-06T09:00:00Z,28.8332,-90.8320,31.96,11111222 
WAVCIS,ioos:station:WAVCIS:CSI15:1,2009-10-06T10:00:00Z,28.8332,-90.8320,32.02,11111222 
WAVCIS,ioos:station:WAVCIS:CSI15:1,2009-10-06T11:00:00Z,28.8332,-90.8320,31.99,11111222 
WAVCIS,ioos:station:WAVCIS:CSI15:1,2009-10-06T12:00:00Z,28.8332,-90.8320,32.45,11111222 
WAVCIS,ioos:station:WAVCIS:CSI15:1,2009-10-06T13:00:00Z,28.8332,-90.8320,32.76,11111222 
WAVCIS,ioos:station:WAVCIS:CSI15:1,2009-10-06T14:00:00Z,28.8332,-90.8320,32.79,11111222 
WAVCIS,ioos:station:WAVCIS:CSI15:1,2009-10-06T15:00:00Z,28.8332,-90.8320,32.81,11111222 
WAVCIS,ioos:station:WAVCIS:CSI15:1,2009-10-06T16:00:00Z,28.8332,-90.8320,32.96,11111222 
WAVCIS,ioos:station:WAVCIS:CSI15:1,2009-10-06T17:00:00Z,28.8332,-90.8320,33.11,11111222 
WAVCIS,ioos:station:WAVCIS:CSI15:1,2009-10-06T18:00:00Z,28.8332,-90.8320,33.16,11111222 
WAVCIS,ioos:station:WAVCIS:CSI15:1,2009-10-06T19:00:00Z,28.8332,-90.8320,33.36,11111222 
WAVCIS,ioos:station:WAVCIS:CSI15:1,2009-10-06T20:00:00Z,28.8332,-90.8320,33.37,11111222 
WAVCIS,ioos:station:WAVCIS:CSI15:1,2009-10-06T21:00:00Z,28.8332,-90.8320,33.57,11111222 
WAVCIS,ioos:station:WAVCIS:CSI15:1,2009-10-06T22:00:00Z,28.8332,-90.8320,33.66,11111222 
WAVCIS,ioos:station:WAVCIS:CSI15:1,2009-10-06T23:00:00Z,28.8332,-90.8320,33.62,11111222 
WAVCIS,ioos:station:WAVCIS:CSI15:1,2009-10-07T00:00:00Z,28.8332,-90.8320,33.44,11111222 
WAVCIS,ioos:station:WAVCIS:CSI15:1,2009-10-07T01:00:00Z,28.8332,-90.8320,33.3,11111222 
WAVCIS,ioos:station:WAVCIS:CSI15:1,2009-10-07T02:00:00Z,28.8332,-90.8320,33.06,11111222 
WAVCIS,ioos:station:WAVCIS:CSI15:1,2009-10-07T03:00:00Z,28.8332,-90.8320,32.94,11111222 
WAVCIS,ioos:station:WAVCIS:CSI15:1,2009-10-07T04:00:00Z,28.8332,-90.8320,32.99,11111222 
WAVCIS,ioos:station:WAVCIS:CSI15:1,2009-10-07T05:00:00Z,28.8332,-90.8320,32.99,11111222 
WAVCIS,ioos:station:WAVCIS:CSI15:1,2009-10-07T06:00:00Z,28.8332,-90.8320,33.06,11111222 
WAVCIS,ioos:station:WAVCIS:CSI15:1,2009-10-07T07:00:00Z,28.8332,-90.8320,32.91,11111222 
WAVCIS,ioos:station:WAVCIS:CSI15:1,2009-10-07T08:00:00Z,28.8332,-90.8320,33.08,11111222 
WAVCIS,ioos:station:WAVCIS:CSI15:1,2009-10-07T09:00:00Z,28.8332,-90.8320,33.01,11111222 
WAVCIS,ioos:station:WAVCIS:CSI15:1,2009-10-07T10:00:00Z,28.8332,-90.8320,32.63,11111222 
WAVCIS,ioos:station:WAVCIS:CSI15:1,2009-10-07T11:00:00Z,28.8332,-90.8320,32.62,11111222 
WAVCIS,ioos:station:WAVCIS:CSI15:1,2009-10-07T12:00:00Z,28.8332,-90.8320,32.47,11111222 
WAVCIS,ioos:station:WAVCIS:CSI15:1,2009-10-07T13:00:00Z,28.8332,-90.8320,32.61,11111222 
WAVCIS,ioos:station:WAVCIS:CSI15:1,2009-10-07T14:00:00Z,28.8332,-90.8320,32.71,11111222 
WAVCIS,ioos:station:WAVCIS:CSI15:1,2009-10-07T15:00:00Z,28.8332,-90.8320,32.81,11111222 
WAVCIS,ioos:station:WAVCIS:CSI15:1,2009-10-07T16:00:00Z,28.8332,-90.8320,32.91,11111222 
WAVCIS,ioos:station:WAVCIS:CSI15:1,2009-10-07T17:00:00Z,28.8332,-90.8320,32.73,11111222 
WAVCIS,ioos:station:WAVCIS:CSI15:1,2009-10-07T18:00:00Z,28.8332,-90.8320,32.73,11111222 
WAVCIS,ioos:station:WAVCIS:CSI15:1,2009-10-07T19:00:00Z,28.8332,-90.8320,32.75,11111222 
WAVCIS,ioos:station:WAVCIS:CSI15:1,2009-10-07T20:00:00Z,28.8332,-90.8320,32.88,11111222 
WAVCIS,ioos:station:WAVCIS:CSI15:1,2009-10-07T21:00:00Z,28.8332,-90.8320,33.05,11111222 
WAVCIS,ioos:station:WAVCIS:CSI15:1,2009-10-07T22:00:00Z,28.8332,-90.8320,33.35,11111222 
WAVCIS,ioos:station:WAVCIS:CSI15:1,2009-10-07T23:00:00Z,28.8332,-90.8320,33.38,11111222 
WAVCIS,ioos:station:WAVCIS:CSI15:1,2009-10-08T00:00:00Z,28.8332,-90.8320,32.69,11111222 
WAVCIS,ioos:station:WAVCIS:CSI15:1,2009-10-08T01:00:00Z,28.8332,-90.8320,32.62,11111222 
WAVCIS,ioos:station:WAVCIS:CSI15:1,2009-10-08T02:00:00Z,28.8332,-90.8320,32.61,11111222 
WAVCIS,ioos:station:WAVCIS:CSI15:1,2009-10-08T03:00:00Z,28.8332,-90.8320,32.49,11111222 
WAVCIS,ioos:station:WAVCIS:CSI15:1,2009-10-08T04:00:00Z,28.8332,-90.8320,32.62,11111222 
WAVCIS,ioos:station:WAVCIS:CSI15:1,2009-10-08T05:00:00Z,28.8332,-90.8320,32.65,11111222 
WAVCIS,ioos:station:WAVCIS:CSI15:1,2009-10-08T06:00:00Z,28.8332,-90.8320,32.62,11111222 
WAVCIS,ioos:station:WAVCIS:CSI15:1,2009-10-08T07:00:00Z,28.8332,-90.8320,32.63,11111222 
WAVCIS,ioos:station:WAVCIS:CSI15:1,2009-10-08T08:00:00Z,28.8332,-90.8320,32.74,11111222 
WAVCIS,ioos:station:WAVCIS:CSI15:1,2009-10-08T09:00:00Z,28.8332,-90.8320,32.74,11111222 
WAVCIS,ioos:station:WAVCIS:CSI15:1,2009-10-08T10:00:00Z,28.8332,-90.8320,32.69,11111222 
WAVCIS,ioos:station:WAVCIS:CSI15:1,2009-10-08T11:00:00Z,28.8332,-90.8320,32.77,11111222 
WAVCIS,ioos:station:WAVCIS:CSI15:1,2009-10-08T12:00:00Z,28.8332,-90.8320,32.75,11111222 
WAVCIS,ioos:station:WAVCIS:CSI15:1,2009-10-08T13:00:00Z,28.8332,-90.8320,32.95,11111222 
WAVCIS,ioos:station:WAVCIS:CSI15:1,2009-10-08T14:00:00Z,28.8332,-90.8320,33.01,11111222 
WAVCIS,ioos:station:WAVCIS:CSI15:1,2009-10-08T15:00:00Z,28.8332,-90.8320,33.16,11111222 
WAVCIS,ioos:station:WAVCIS:CSI15:1,2009-10-08T16:00:00Z,28.8332,-90.8320,33.23,11111222 
WAVCIS,ioos:station:WAVCIS:CSI15:1,2009-10-08T17:00:00Z,28.8332,-90.8320,33.3,11111222 
WAVCIS,ioos:station:WAVCIS:CSI15:1,2009-10-08T18:00:00Z,28.8332,-90.8320,33.39,11111222 
WAVCIS,ioos:station:WAVCIS:CSI15:1,2009-10-08T19:00:00Z,28.8332,-90.8320,33.62,11111222 
WAVCIS,ioos:station:WAVCIS:CSI15:1,2009-10-08T20:00:00Z,28.8332,-90.8320,33.74,11111222 
WAVCIS,ioos:station:WAVCIS:CSI15:1,2009-10-08T21:00:00Z,28.8332,-90.8320,34.04,11111222 
WAVCIS,ioos:station:WAVCIS:CSI15:1,2009-10-08T22:00:00Z,28.8332,-90.8320,33.92,11111222 
WAVCIS,ioos:station:WAVCIS:CSI15:1,2009-10-08T23:00:00Z,28.8332,-90.8320,33.65,11111222 
WAVCIS,ioos:station:WAVCIS:CSI15:1,2009-10-09T00:00:00Z,28.8332,-90.8320,33.37,11111222 
WAVCIS,ioos:station:WAVCIS:CSI15:1,2009-10-09T01:00:00Z,28.8332,-90.8320,33.31,11111222 
WAVCIS,ioos:station:WAVCIS:CSI15:1,2009-10-09T02:00:00Z,28.8332,-90.8320,33.24,11111222 
WAVCIS,ioos:station:WAVCIS:CSI15:1,2009-10-09T03:00:00Z,28.8332,-90.8320,33.01,11111222 
WAVCIS,ioos:station:WAVCIS:CSI15:1,2009-10-09T04:00:00Z,28.8332,-90.8320,32.94,11111222 
WAVCIS,ioos:station:WAVCIS:CSI15:1,2009-10-09T05:00:00Z,28.8332,-90.8320,33.12,11111222 
WAVCIS,ioos:station:WAVCIS:CSI15:1,2009-10-09T06:00:00Z,28.8332,-90.8320,33.01,11111222 
WAVCIS,ioos:station:WAVCIS:CSI15:1,2009-10-09T07:00:00Z,28.8332,-90.8320,32.97,11111222 
WAVCIS,ioos:station:WAVCIS:CSI15:1,2009-10-09T08:00:00Z,28.8332,-90.8320,33.02,11111222 
WAVCIS,ioos:station:WAVCIS:CSI15:1,2009-10-09T09:00:00Z,28.8332,-90.8320,32.88,11111222 
WAVCIS,ioos:station:WAVCIS:CSI15:1,2009-10-09T10:00:00Z,28.8332,-90.8320,32.94,11111222 
WAVCIS,ioos:station:WAVCIS:CSI15:1,2009-10-09T11:00:00Z,28.8332,-90.8320,32.84,11111222 
WAVCIS,ioos:station:WAVCIS:CSI15:1,2009-10-09T12:00:00Z,28.8332,-90.8320,32.94,11111222 
WAVCIS,ioos:station:WAVCIS:CSI15:1,2009-10-09T13:00:00Z,28.8332,-90.8320,33.15,11111222 
WAVCIS,ioos:station:WAVCIS:CSI15:1,2009-10-09T14:00:00Z,28.8332,-90.8320,33.28,11111222 
WAVCIS,ioos:station:WAVCIS:CSI15:1,2009-10-09T15:00:00Z,28.8332,-90.8320,33.5,11111222 
WAVCIS,ioos:station:WAVCIS:CSI15:1,2009-10-09T16:00:00Z,28.8332,-90.8320,33.47,11111222 
WAVCIS,ioos:station:WAVCIS:CSI15:1,2009-10-09T17:00:00Z,28.8332,-90.8320,33.48,11111222 
WAVCIS,ioos:station:WAVCIS:CSI15:1,2009-10-09T18:00:00Z,28.8332,-90.8320,33.6,11111222 
WAVCIS,ioos:station:WAVCIS:CSI15:1,2009-10-09T19:00:00Z,28.8332,-90.8320,33.72,11111222 
WAVCIS,ioos:station:WAVCIS:CSI15:1,2009-10-09T20:00:00Z,28.8332,-90.8320,33.77,11111222 
WAVCIS,ioos:station:WAVCIS:CSI15:1,2009-10-09T21:00:00Z,28.8332,-90.8320,33.92,11111222 
WAVCIS,ioos:station:WAVCIS:CSI15:1,2009-10-09T22:00:00Z,28.8332,-90.8320,34.22,11111222 
WAVCIS,ioos:station:WAVCIS:CSI15:1,2009-10-09T23:00:00Z,28.8332,-90.8320,34.16,11111222 
WAVCIS,ioos:station:WAVCIS:CSI15:1,2009-10-10T00:00:00Z,28.8332,-90.8320,33.52,11111222 
WAVCIS,ioos:station:WAVCIS:CSI15:1,2009-10-10T01:00:00Z,28.8332,-90.8320,33.95,11111222 
WAVCIS,ioos:station:WAVCIS:CSI15:1,2009-10-10T02:00:00Z,28.8332,-90.8320,33.84,11111222 
WAVCIS,ioos:station:WAVCIS:CSI15:1,2009-10-10T03:00:00Z,28.8332,-90.8320,28.12,11111222 
WAVCIS,ioos:station:WAVCIS:CSI15:1,2009-10-10T04:00:00Z,28.8332,-90.8320,28.5,11111222 
WAVCIS,ioos:station:WAVCIS:CSI15:1,2009-10-10T05:00:00Z,28.8332,-90.8320,28.25,11111222 
WAVCIS,ioos:station:WAVCIS:CSI15:1,2009-10-10T06:00:00Z,28.8332,-90.8320,28.56,11111222 
WAVCIS,ioos:station:WAVCIS:CSI15:1,2009-10-10T07:00:00Z,28.8332,-90.8320,28.49,11111222 
WAVCIS,ioos:station:WAVCIS:CSI15:1,2009-10-10T08:00:00Z,28.8332,-90.8320,28.71,11111222 
WAVCIS,ioos:station:WAVCIS:CSI15:1,2009-10-10T09:00:00Z,28.8332,-90.8320,28.96,11111222 
WAVCIS,ioos:station:WAVCIS:CSI15:1,2009-10-10T10:00:00Z,28.8332,-90.8320,29.49,11111222 
WAVCIS,ioos:station:WAVCIS:CSI15:1,2009-10-10T11:00:00Z,28.8332,-90.8320,29.79,11111222 
WAVCIS,ioos:station:WAVCIS:CSI15:1,2009-10-10T12:00:00Z,28.8332,-90.8320,29.83,11111222 
WAVCIS,ioos:station:WAVCIS:CSI15:1,2009-10-10T13:00:00Z,28.8332,-90.8320,30.52,11111222 
WAVCIS,ioos:station:WAVCIS:CSI15:1,2009-10-10T14:00:00Z,28.8332,-90.8320,30.37,11111222 
WAVCIS,ioos:station:WAVCIS:CSI15:1,2009-10-10T15:00:00Z,28.8332,-90.8320,30.37,11111222 
WAVCIS,ioos:station:WAVCIS:CSI15:1,2009-10-10T16:00:00Z,28.8332,-90.8320,30.76,11111222 
WAVCIS,ioos:station:WAVCIS:CSI15:1,2009-10-10T17:00:00Z,28.8332,-90.8320,30.88,11111222 
WAVCIS,ioos:station:WAVCIS:CSI15:1,2009-10-10T18:00:00Z,28.8332,-90.8320,31.04,11111222 
WAVCIS,ioos:station:WAVCIS:CSI15:1,2009-10-10T19:00:00Z,28.8332,-90.8320,31.04,11111222 
WAVCIS,ioos:station:WAVCIS:CSI15:1,2009-10-10T20:00:00Z,28.8332,-90.8320,30.85,11111222 
WAVCIS,ioos:station:WAVCIS:CSI15:1,2009-10-10T21:00:00Z,28.8332,-90.8320,29.14,11111222 
WAVCIS,ioos:station:WAVCIS:CSI15:1,2009-10-10T22:00:00Z,28.8332,-90.8320,28.77,11111222 
WAVCIS,ioos:station:WAVCIS:CSI15:1,2009-10-10T23:00:00Z,28.8332,-90.8320,28.63,11111222 
WAVCIS,ioos:station:WAVCIS:CSI15:1,2009-10-11T00:00:00Z,28.8332,-90.8320,28.27,11111222 
WAVCIS,ioos:station:WAVCIS:CSI15:1,2009-10-11T01:00:00Z,28.8332,-90.8320,28.04,11111222 
WAVCIS,ioos:station:WAVCIS:CSI15:1,2009-10-11T02:00:00Z,28.8332,-90.8320,27.88,11111222 
WAVCIS,ioos:station:WAVCIS:CSI15:1,2009-10-11T03:00:00Z,28.8332,-90.8320,28.07,11111222 
WAVCIS,ioos:station:WAVCIS:CSI15:1,2009-10-11T04:00:00Z,28.8332,-90.8320,27.86,11111222 
WAVCIS,ioos:station:WAVCIS:CSI15:1,2009-10-11T05:00:00Z,28.8332,-90.8320,27.84,11111222 
WAVCIS,ioos:station:WAVCIS:CSI15:1,2009-10-11T06:00:00Z,28.8332,-90.8320,28.04,11111222 
WAVCIS,ioos:station:WAVCIS:CSI15:1,2009-10-11T07:00:00Z,28.8332,-90.8320,28.3,11111222 
WAVCIS,ioos:station:WAVCIS:CSI15:1,2009-10-11T08:00:00Z,28.8332,-90.8320,28.68,11111222 
WAVCIS,ioos:station:WAVCIS:CSI15:1,2009-10-11T09:00:00Z,28.8332,-90.8320,28.83,11111222 
WAVCIS,ioos:station:WAVCIS:CSI15:1,2009-10-11T10:00:00Z,28.8332,-90.8320,28.83,11111222 
WAVCIS,ioos:station:WAVCIS:CSI15:1,2009-10-11T11:00:00Z,28.8332,-90.8320,28.9,11111222 
WAVCIS,ioos:station:WAVCIS:CSI15:1,2009-10-11T12:00:00Z,28.8332,-90.8320,28.41,11111222 
WAVCIS,ioos:station:WAVCIS:CSI15:1,2009-10-11T13:00:00Z,28.8332,-90.8320,28.95,11111222 
WAVCIS,ioos:station:WAVCIS:CSI15:1,2009-10-11T14:00:00Z,28.8332,-90.8320,29.04,11111222 
WAVCIS,ioos:station:WAVCIS:CSI15:1,2009-10-11T15:00:00Z,28.8332,-90.8320,29.89,11111222 
WAVCIS,ioos:station:WAVCIS:CSI15:1,2009-10-11T16:00:00Z,28.8332,-90.8320,30.36,11111222 
WAVCIS,ioos:station:WAVCIS:CSI15:1,2009-10-11T17:00:00Z,28.8332,-90.8320,31.62,11111222 
WAVCIS,ioos:station:WAVCIS:CSI15:1,2009-10-11T18:00:00Z,28.8332,-90.8320,31.39,11111222 
WAVCIS,ioos:station:WAVCIS:CSI15:1,2009-10-11T19:00:00Z,28.8332,-90.8320,26.51,11111222 
WAVCIS,ioos:station:WAVCIS:CSI15:1,2009-10-11T20:00:00Z,28.8332,-90.8320,28.46,11111222 
WAVCIS,ioos:station:WAVCIS:CSI15:1,2009-10-11T21:00:00Z,28.8332,-90.8320,28.88,11111222 
WAVCIS,ioos:station:WAVCIS:CSI15:1,2009-10-11T22:00:00Z,28.8332,-90.8320,29.75,11111222 
WAVCIS,ioos:station:WAVCIS:CSI15:1,2009-10-11T23:00:00Z,28.8332,-90.8320,30.16,11111222 
WAVCIS,ioos:station:WAVCIS:CSI15:1,2009-10-12T00:00:00Z,28.8332,-90.8320,30.15,11111222 
WAVCIS,ioos:station:WAVCIS:CSI15:1,2009-10-12T01:00:00Z,28.8332,-90.8320,30.67,11111222 
WAVCIS,ioos:station:WAVCIS:CSI15:1,2009-10-12T02:00:00Z,28.8332,-90.8320,31.15,11111222 
WAVCIS,ioos:station:WAVCIS:CSI15:1,2009-10-12T03:00:00Z,28.8332,-90.8320,31.1,11111222 
WAVCIS,ioos:station:WAVCIS:CSI15:1,2009-10-12T04:00:00Z,28.8332,-90.8320,33.01,11111222 